Lawrenceville, IL

7:04 PM CDT on August 16, 2017 (GMT -0500)
Lawrenceville-Vincennes International

Weather History for KLWV - September, 2013

Change the Weather History Date:

Tuesday, September 3, 2013

  Actual Average Record
Temperature  
Mean Temperature 69 °F 74 °F  
Max Temperature 80 °F 86 °F 101 °F (2011)
Min Temperature 58 °F 62 °F 53 °F (1997)
Degree Days  
Heating Degree Days 0 0  
Month to date heating degree days 0 0  
Since 1 July heating degree days 5 1  
Cooling Degree Days 4 9  
Month to date cooling degree days 30 27  
Year to date cooling degree days 1085 1210  
Growing Degree Days 21 (Base 50)    
Moisture  
Dew Point 58 °F    
Average Humidity 68    
Maximum Humidity 93    
Minimum Humidity 42    
Precipitation  
Precipitation 0.00 in 0.08 in 1.14 in (1993)
Month to date precipitation 0.02 0.28  
Year to date precipitation 41.66 29.63  
Sea Level Pressure  
Sea Level Pressure 30.03 in    
Wind  
Wind Speed 7 mph (NNE)    
Max Wind Speed 14 mph    
Max Gust Speed -    
Visibility 10 miles    
Events      
T = Trace of Precipitation, MM = Missing Value Source: NWS Daily Summary

Daily Weather History Graph

Daily Weather History Graph

Search for Another Location

Airport or City:

Trip Planner

Search our weather history database for the weather conditions in past years. The results will help you decide how hot, cold, wet, or windy it might be!

Date:

Astronomy

Sep. 03, 2013 Rise Set
Actual Time 6:21 AM CDT 7:17 PM CDT
Civil Twilight 5:54 AM CDT 7:44 PM CDT
Nautical Twilight 5:22 AM CDT 8:16 PM CDT
Astronomical Twilight 4:48 AM CDT 8:49 PM CDT
Moon 4:35 AM CDT (9/3) 6:04 PM CDT (9/3)
Length of Visible Light 13h 49m
Length of Day
12h 55m
Waning Crescent, 3% of the Moon is Illuminated
Sep 3
Waning Crescent
Sep 5
New
Sep 12
First Quarter
Sep 19
Full
Sep 26
Last Quarter

Hourly Weather History & Observations

Time (CDT) Temp. Heat Index Dew Point Humidity Pressure Visibility Wind Dir Wind Speed Gust Speed Precip Events Conditions
12:53 AM 69.1 °F - 63.0 °F 81% 29.93 in 10.0 mi NNE 6.9 mph - N/A   Clear
1:53 AM 68.0 °F - 63.0 °F 84% 29.94 in 10.0 mi NNE 8.1 mph - N/A   Mostly Cloudy
2:53 AM 66.9 °F - 63.0 °F 87% 29.96 in 10.0 mi NNE 9.2 mph - N/A   Overcast
3:53 AM 64.9 °F - 62.1 °F 90% 29.98 in 9.0 mi NNE 4.6 mph - N/A   Mostly Cloudy
4:53 AM 64.0 °F - 62.1 °F 93% 29.99 in 9.0 mi NNE 3.5 mph - N/A   Mostly Cloudy
5:53 AM 63.0 °F - 60.1 °F 90% 30.01 in 9.0 mi North 5.8 mph - N/A   Clear
6:53 AM 64.0 °F - 60.1 °F 87% 30.03 in 9.0 mi North 6.9 mph - N/A   Mostly Cloudy
7:53 AM 66.0 °F - 59.0 °F 78% 30.05 in 9.0 mi NE 8.1 mph - N/A   Clear
8:53 AM 68.0 °F - 55.9 °F 65% 30.06 in 10.0 mi NE 11.5 mph - N/A   Clear
9:53 AM 71.1 °F - 55.0 °F 57% 30.07 in 10.0 mi NE 9.2 mph - N/A   Clear
10:53 AM 73.9 °F - 55.9 °F 53% 30.07 in 10.0 mi NNE 10.4 mph - N/A   Clear
11:53 AM 75.9 °F - 55.9 °F 50% 30.06 in 10.0 mi North 6.9 mph - N/A   Clear
12:53 PM 78.1 °F - 57.0 °F 48% 30.06 in 10.0 mi North 9.2 mph - N/A   Clear
1:53 PM 79.0 °F - 57.0 °F 47% 30.05 in 10.0 mi North 10.4 mph - N/A   Clear
2:53 PM 79.0 °F - 57.0 °F 47% 30.03 in 10.0 mi North 8.1 mph - N/A   Partly Cloudy
3:53 PM 80.1 °F 80.1 °F 55.0 °F 42% 30.02 in 10.0 mi North 6.9 mph - N/A   Clear
4:53 PM 80.1 °F 80.1 °F 55.0 °F 42% 30.02 in 10.0 mi North 8.1 mph - N/A   Clear
5:53 PM 75.9 °F - 53.1 °F 45% 30.02 in 10.0 mi North 8.1 mph - N/A   Clear
6:53 PM 73.0 °F - 55.9 °F 55% 30.02 in 10.0 mi NNW 4.6 mph - N/A   Clear
7:53 PM 66.9 °F - 61.0 °F 81% 30.04 in 10.0 mi North 5.8 mph - N/A   Clear
8:53 PM 64.9 °F - 57.9 °F 78% 30.05 in 10.0 mi North 5.8 mph - 0.00 in   Clear
9:53 PM 64.0 °F - 57.9 °F 80% 30.06 in 10.0 mi NNE 6.9 mph - N/A   Clear
10:53 PM 62.1 °F - 57.9 °F 86% 30.07 in 10.0 mi NE 4.6 mph - N/A   Clear
11:53 PM 60.1 °F - 57.0 °F 90% 30.09 in 9.0 mi Calm Calm - N/A   Clear